SCOUT B DEB, 2516

Orbit data source: Space-Track

SCOUT B DEB, 2516 is space debris in LEO originally from a launch on Fri, 10 Jun 1966 UTC launched from the Wallops Island (WLPIS). Debris objects in space refer to the collection of defunct objects orbiting the Earth. Examples of debris include non-operational satellites, rocket bodies, and fragments generated from explosions, collisions, or faulty payload assembly.

Loading next visibility...
Identifier
2516, 1966-052D
Orbit
LEO
Country
Flag of USUS
Related business
Manufacturer
Unknown
Mission
Spacecraft
Bus & Motor
Unknown
Mass
Unknown
Launch date (UTC)
1966-06-10 (59 years ago)
Launch vehicle
Unknown
Launch site
Wallops Island (WLPIS)
Object type
Payload
Rocket body
Debris
Shape & HBR
Unknown
Radar Cross Section
Small (<0.1 m²)

Expand to show TLE details & history
Last TLE update: 5 days ago

TLE from 5 days ago
0 SCOUT B DEB
1 02516U 66052D   25255.99429980  .00000359  00000-0  75834-3 0  9999
2 02516  41.0283  19.0144 2220415 213.2835 130.6528 10.00789470296326
Epoch: 2025-09-12T23:51Z
TLE epoch observation values (Epoch: 2025-09-12T23:51:47.502Z)
Latitude
-0.00003°
Longitude
28.83241°
Altitude
4,241.173 km
Speed
5.592 km/s
True Right ascension
01h 16m 03s
True Declination
0° 00' 00"
Sunlit
Object was in full shadow at epoch
Visualization orbit readout
Latitude
Unknown
Longitude
Unknown
Altitude
Unknown
Speed
Unknown
Apparent Right ascension
Unknown
Apparent Declination
Unknown
Sunlit
N/A
Visualization observer readout
Local Sidereal Time
21:21:30
Azimuth
Unknown
Elevation
Unknown
Doppler factor
Unknown
Orbital elements
Apogee altitude
4,739.55 km
Perigee altitude
699.445 km
Semi-major axis
9,097.635 km
Eccentricity
0.22204
Inclination
41.0283°
RAAN
19.0144°
Arg. of periapsis
213.2835°
True anomaly
146.77833°
Mean anomaly
130.6528°
Eccentric anomaly
138.99932°
Mean motion
2.50121 °/min
Orbital period
143.93 mins
BSTAR
0.00075834
Loading maneuver chart data...
Computing Atmospheric mass density...
Loading historical data...
Loading historical data...
Loading historical data...
Loading historical data...
Loading historical data...
Loading historical data...
Loading historical data...
Other satellites on launch #52 in the year 1966 (1966-06-10 UTC)

Documentation

Showing up to 5 results
|